Гарц

Германия     53°12′29″N   14°23′25″E
темп.,
°C
ветер,
м/с
пор.,
м/с
влажн.,
%
обл.,
%
осадки,
мм/ч
давл.,
гПа
погр.,
м
9 мая, вс
вс923:00+7юв41056100 0.0 1015190
02:00+7ююв41160100 0.0 1014241
05:00+9ююв51262100 0.0 1012297
08:00+10ю5116998 0.0 1012327
11:00+17ю6964100 0.0 1011611
14:00+20ююз7956100 0.0 10101349
17:00+22ю5959100 0.0 10091154
20:00+17ююв51278100 0.0 1009277
10 мая, пн
пн1023:00+14ююв414855 0.0 1009242
02:00+14ююв614785 0.0 1009284
05:00+11ююв4118296 0.0 1009244
08:00+14ююв5117642 0.0 1009335
11:00+19ююв566296 0.0 1009689
14:00+21ююв4555100 0.0 10091143
17:00+22ю45567 0.0 1009995
20:00+19юв227294 0.0 100912
11 мая, вт
вт1123:00+15юв2279100 0.0 101020
02:00+14юв129088 0.0 100912
05:00+13вюв3493100 0.0 100851
08:00+16вюв4983100 0.0 1008315
11:00+20юв576687 0.0 1007827
14:00+24юв675499 0.0 10051547
17:00+24ююв475646 0.0 10041736
20:00+21юв117398 0.1 100421
12 мая, ср
ср1223:00+18ююв2381100 0.0 100559
02:00+17вюв4787100 0.0 1005208
05:00+14вюв399783 0.0 1004227
08:00+16вюв69832 0.0 1005414
11:00+21юв686964 0.0 10051106
14:00+20зюз4478100 0.1 1005446
17:00+21юв247416 0.9 1005747
20:00+18св128196 3.9 100442
13 мая, чт
чт1323:00+14вюв5128887 1.9 1005518
02:00+12в4108861 1.9 1005328
05:00+9в410935 0.0 1004235
08:00+11в4681100 0.0 1004392
11:00+16всв4564100 0.0 10041073
14:00+18в3548100 0.0 10031645
17:00+19всв2445100 0.0 10021854
20:00+14ссв4772100 0.0 1003265